Torna al catalogo

FENGYUN 1C DEB

AttivoSSO
NORAD 30887·DEBRIS·🇨🇳 China

Lanciato May 10, 1999 da Taiyuan Satellite Launch Center

Loading…

Prossimi Passaggi (prossime 24 ore)

TLE

AggiornatoSource: Space-Track

Epoca: Sep 12, 2026, 21:07 UTC

1 30887U 99025AXZ 26255.88011507  .00001962  00000-0  36854-3 0  9998
2 30887  98.3341 312.7830 0260197 174.2913 186.1348 14.46354455 20826

Traccia FENGYUN 1C DEB in tempo reale con AllMySat

Download on the App Store